Regional Weather Roundup
Issued by NWS Charleston, WV

Home | Current Version | Previous Version | Graphics & Text | Print | Product List | Glossary On
Versions: 1 2 3 4 5 6 7 8 9 10 11 12 13 14 15 16 17 18 19 20 21 22 23 24 25 26 27 28 29 30 31 32 33 34 35 36 37 38 39 40 41 42 43 44 45 46 47 48 49
000
ASUS41 KRLX 251010
RWRRLX
West Virginia Regional Weather Roundup
National Weather Service Charleston WV
500 AM EST SUN JAN 25 2015

Note: "fair" indicates few or no clouds below 12,000 feet with no
significant weather and/or obstructions to visibility.

WVZ003-251100-
Northern Panhandle of West Virginia

CITY           SKY/WX    TMP DP  RH WIND       PRES   REMARKS
WHEELING       CLOUDY    32  30  92 W7        29.74F FOG
$$

WVZ009-251100-
Northwest West Virginia

CITY           SKY/WX    TMP DP  RH WIND       PRES   REMARKS
PARKERSBURG    CLOUDY    33  31  92 S5        29.81F
$$

WVZ006-251100-
Western West Virginia

CITY           SKY/WX    TMP DP  RH WIND       PRES   REMARKS
HUNTINGTON     MOCLDY    33  31  92 S6        29.80F
$$

WVZ015-251100-
West Central West Virginia

CITY           SKY/WX    TMP DP  RH WIND       PRES   REMARKS
CHARLESTON     CLOUDY    34  30  85 SW3       29.81F
$$

WVZ022-031-251100-
North Central West Virginia

CITY           SKY/WX    TMP DP  RH WIND       PRES   REMARKS
CLARKSBURG     CLOUDY    33  30  88 S7        29.78F
MORGANTOWN     CLOUDY    32  28  85 SW8       29.77F
$$

WVZ025-035-042-045-251100-
Southern West Virginia

CITY           SKY/WX    TMP DP  RH WIND       PRES   REMARKS
BECKLEY        CLOUDY    31  28  89 SW6       29.78F
LOGAN            N/A     34  30  86 CALM      29.80F
BLUEFIELD      CLOUDY    30  26  85 W6        29.79S
LEWISBURG      CLOUDY    33  29  86 SW3       29.78F
$$

WVZ047-251100-
Northern Mountains of West Virginia

CITY           SKY/WX    TMP DP  RH WIND       PRES   REMARKS
ELKINS         CLOUDY    32  29  88 W13G22    29.77S
$$

WVZ052-251100-
Eastern Panhandle of West Virginia

CITY           SKY/WX    TMP DP  RH WIND       PRES   REMARKS
MARTINSBURG    CLOUDY    38  27  64 S7        29.73R
PETERSBURG     CLOUDY    37  27  65 CALM      29.76R
$$


USA.gov is the U.S. government's official web portal to all federal, state and local government web resources and services.